Volver al catálogo

STARLINK-1871

ActivoComunicacionesVLEO
NORAD 47157·PAYLOAD·🇺🇸 United States

Lanzado Nov 25, 2020 desde Cape Canaveral Space Force Station

Loading…

Próximos Pases (próximas 24 horas)

TLE

ActualizadoSource: CelesTrak SupGP

Época: Sep 15, 2026, 01:45 UTC

1 47157C 20088AM  26258.07340278  .00073112  00000+0  15167-2 0  2589
2 47157  53.1516 127.9640 0001883 126.0495  14.8837 15.45087010    16

Sigue STARLINK-1871 en tiempo real con AllMySat

Download on the App Store